sat.trackr.live / text

‹ back to catalog

HULIANWANG DIGUI-71

NORAD 65231 · 2025-178D

PAYLOAD ACTIVE UNKNOWN

§ Identity

Operator
Country
PRC
Launch date
2025-08-17
Launch site
TAISC
Launch vehicle
Mass (kg)
RCS (m²)

External: N2YO · Heavens-Above · Gunter

§ Orbital elements

Epoch: 2026-05-25T03:23:18.182688Z

Period
108.73 min
Inclination
86.5019°
Eccentricity
0.0001675
Mean motion
13.24411657 rev/d
Perigee alt
1,166.7 km
Apogee alt
1,169.2 km
Semi-major
7,546.1 km
B*
1.2790e-4
RAAN
21.3352°
Arg perigee
87.5861°
Mean anomaly
272.5464°
Rev number
3,726

§ Raw data

HULIANWANG DIGUI-711 65231U 25178D   26145.14118267  .00000070  00000+0  12790-3 0  99962 65231  86.5019  21.3352 0001675  87.5861 272.5464 13.24411657 37260

JSON: /api/v1/satellites/65231 · /tle

For live sub-satellite position, see the globe view (requires WebGL).

§ Visibility from observer

Set your observer location to see the next 7 days of passes ≥ 10°. The values pass through the URL so the page stays shareable.

No JS? Fill the form by hand. The geolocation button needs JavaScript.